313  
ASUS43 KLSX 241110  
RWRMO  
 
WEATHER SUMMARY FOR MISSOURI  
NATIONAL WEATHER SERVICE SPRINGFIELD MO  
600 AM CDT MON SEP 24 2018  
 
NOTE: "FAIR" INDICATES FEW OR NO CLOUDS BELOW 12,000 FEET WITH NO  
SIGNIFICANT WEATHER AND/OR S TO VISIBILITY
.  
CURRENT SKY AND/OR WEATHER CONDITIONS ARE NOT AVAILABLE FOR  
CHILLICOTHE AND FARMINGTON.  
 
MOZ001>031-035>038-043-044-053-054-241200-   
..NORTHERN AND WESTERN MISSOURI
 
 
 
CITY SKY/WX TMP DP RH WIND PRES REMARKS
 
KANSAS CTY INT CLOUDY 65 62 90 SE6 29.95S  
KANSAS C DTWN CLOUDY 70 62 76 E5 29.94S  
LEE'S SUMMIT CLOUDY 68 65 90 MISG 29.96R  
ST JOSEPH CLOUDY 57 56 96 CALM 29.95S  
CHILLICOTHE N/A 57 54 89 CALM 29.99R  
KIRKSVILLE CLOUDY 57 53 86 E5 30.00R  
 

 
MOZ066>068-077>081-088>096-101>105-241200-   
..SOUTHWEST MISSOURI
 
 
 
CITY SKY/WX TMP DP RH WIND PRES REMARKS
 
SPRINGFIELD CLOUDY 65 63 93 S7 29.96R  
JOPLIN CLOUDY 66 64 93 SE5 29.95R  
 

 
MOZ032>034-039>042-045>050-055>058-069>072-241200-   
..CENTRAL MISSOURI
 
 
 
CITY SKY/WX TMP DP RH WIND PRES REMARKS
 
COLUMBIA CLOUDY 68 62 81 E3 29.97S  
JEFFERSON CITY CLOUDY 67 63 87 CALM 29.96R  
ROLLA CLOUDY 66 63 90 SE3 29.98R  
SEDALIA CLOUDY 65 64 97 CALM 29.98R  
WHITEMAN AFB MOCLDY 66 66 100 CALM 29.92S  
WARRENSBURG CLOUDY 63 61 94 CALM 29.95S  
OSAGE BEACH CLOUDY 67 65 93 CALM 29.97R  
 

 
MOZ051-052-059>065-241200-   
..EAST CENTRAL MISSOURI
 
 
 
CITY SKY/WX TMP DP RH WIND PRES REMARKS
 
ST LOUIS INTL CLOUDY 67 64 90 E10 29.98S  
SPIRIT OF STL CLOUDY 69 65 86 E5 29.96S  
ST CHARLES CLOUDY 67 64 90 E6 29.97S  
 

 
MOZ072>076-082>087-097>100-106>115-241200-   
..SOUTH CENTRAL AND SOUTHEAST MISSOURI
 
 
 
CITY SKY/WX TMP DP RH WIND PRES REMARKS
 
CAPE GIRARDEAU LGT RAIN 68 66 93 CALM 29.96R FOG  
FARMINGTON LGT RAIN 66 64 94 CALM 29.99R FOG  
POPLAR BLUFF LGT RAIN 67 67 100 NE3 29.95R VSB 1/2  
WEST PLAINS CLOUDY 66 65 96 SE5 29.98S FOG  
 

 
 
 
CLICK HERE TO GO TO PREVIOUS BULLETINS.

The Nexlab MO Page Main Text Page